TimeCST,TemperatureF,Dew PointF,Humidity,Sea Level PressureIn,VisibilityMPH,Wind Direction,Wind SpeedMPH,Gust SpeedMPH,PrecipitationIn,Events,Conditions,WindDirDegrees,DateUTC
12:15 AM,51.8,30.2,44,30.14,10.0,SE,8.1,-,N/A,,Scattered Clouds,140,2012-11-30 06:15:00
12:35 AM,53.6,30.2,41,30.14,10.0,SSE,9.2,-,N/A,,Partly Cloudy,150,2012-11-30 06:35:00
12:55 AM,53.6,32.0,44,30.13,10.0,SE,9.2,-,N/A,,Mostly Cloudy,130,2012-11-30 06:55:00
1:15 AM,50.0,32.0,50,30.13,10.0,SE,8.1,-,N/A,,Overcast,130,2012-11-30 07:15:00
1:35 AM,50.0,32.0,50,30.13,10.0,SE,8.1,-,N/A,,Overcast,130,2012-11-30 07:35:00
1:55 AM,48.2,32.0,54,30.13,9.0,ESE,9.2,-,N/A,,Overcast,120,2012-11-30 07:55:00
2:15 AM,48.2,32.0,54,30.13,10.0,ESE,9.2,-,N/A,,Mostly Cloudy,120,2012-11-30 08:15:00
2:35 AM,48.2,32.0,54,30.13,10.0,ESE,9.2,-,N/A,,Mostly Cloudy,120,2012-11-30 08:35:00
2:55 AM,48.2,32.0,54,30.14,10.0,ESE,9.2,-,N/A,,Mostly Cloudy,120,2012-11-30 08:55:00
3:15 AM,46.4,32.0,57,30.13,10.0,ESE,8.1,-,N/A,,Mostly Cloudy,120,2012-11-30 09:15:00
3:35 AM,48.2,32.0,54,30.13,10.0,ESE,9.2,-,N/A,,Mostly Cloudy,120,2012-11-30 09:35:00
3:55 AM,46.4,32.0,57,30.12,10.0,ESE,9.2,-,N/A,,Mostly Cloudy,120,2012-11-30 09:55:00
4:15 AM,46.4,32.0,57,30.12,10.0,ESE,10.4,-,N/A,,Mostly Cloudy,120,2012-11-30 10:15:00
4:35 AM,46.4,32.0,57,30.13,10.0,ESE,9.2,-,N/A,,Mostly Cloudy,110,2012-11-30 10:35:00
4:55 AM,46.4,32.0,57,30.13,10.0,ESE,9.2,-,N/A,,Overcast,110,2012-11-30 10:55:00
5:15 AM,46.4,32.0,57,30.12,10.0,ESE,10.4,-,N/A,,Mostly Cloudy,110,2012-11-30 11:15:00
5:35 AM,46.4,32.0,57,30.12,9.0,ESE,11.5,-,N/A,,Overcast,110,2012-11-30 11:35:00
5:55 AM,46.4,33.8,62,30.12,10.0,ESE,9.2,-,N/A,,Mostly Cloudy,110,2012-11-30 11:55:00
6:15 AM,46.4,35.6,66,30.12,9.0,ESE,10.4,-,N/A,,Partly Cloudy,110,2012-11-30 12:15:00
6:35 AM,46.4,35.6,66,30.13,10.0,ESE,9.2,-,N/A,,Scattered Clouds,110,2012-11-30 12:35:00
6:55 AM,46.4,35.6,66,30.14,10.0,ESE,10.4,-,N/A,,Partly Cloudy,110,2012-11-30 12:55:00
7:15 AM,46.4,35.6,66,30.14,8.0,ESE,9.2,-,N/A,,Clear,110,2012-11-30 13:15:00
7:35 AM,46.4,37.4,71,30.14,9.0,ESE,9.2,-,N/A,,Clear,110,2012-11-30 13:35:00
7:55 AM,48.2,37.4,66,30.14,9.0,ESE,9.2,-,N/A,,Clear,120,2012-11-30 13:55:00
8:15 AM,50.0,37.4,62,30.14,9.0,SE,5.8,-,N/A,,Clear,130,2012-11-30 14:15:00
8:35 AM,53.6,39.2,58,30.15,8.0,ESE,8.1,-,N/A,,Clear,110,2012-11-30 14:35:00
8:55 AM,53.6,41.0,62,30.15,8.0,ESE,6.9,-,N/A,,Clear,120,2012-11-30 14:55:00
9:15 AM,57.2,41.0,55,30.15,8.0,ESE,3.5,-,N/A,,Clear,110,2012-11-30 15:15:00
9:35 AM,59.0,44.6,59,30.16,9.0,SE,3.5,-,N/A,,Clear,130,2012-11-30 15:35:00
9:55 AM,62.6,48.2,59,30.15,8.0,South,8.1,-,N/A,,Clear,190,2012-11-30 15:55:00
10:15 AM,64.4,50.0,59,30.16,9.0,SSW,8.1,-,N/A,,Clear,210,2012-11-30 16:15:00
10:35 AM,66.2,50.0,56,30.15,9.0,SW,10.4,-,N/A,,Clear,230,2012-11-30 16:35:00
10:55 AM,66.2,51.8,60,30.14,9.0,SW,12.7,-,N/A,,Clear,230,2012-11-30 16:55:00
11:15 AM,66.2,51.8,60,30.13,9.0,SW,10.4,-,N/A,,Mostly Cloudy,230,2012-11-30 17:15:00
11:35 AM,66.2,51.8,60,30.12,8.0,WSW,12.7,18.4,N/A,,Overcast,240,2012-11-30 17:35:00
11:55 AM,68.0,51.8,56,30.11,7.0,SW,17.3,20.7,N/A,,Scattered Clouds,230,2012-11-30 17:55:00
12:15 PM,68.0,51.8,56,30.10,7.0,SW,13.8,19.6,N/A,,Clear,230,2012-11-30 18:15:00
12:35 PM,68.0,51.8,56,30.09,8.0,SW,12.7,-,N/A,,Clear,230,2012-11-30 18:35:00
12:55 PM,68.0,51.8,56,30.07,7.0,SW,11.5,17.3,N/A,,Partly Cloudy,220,2012-11-30 18:55:00
1:15 PM,69.8,51.8,53,30.06,8.0,South,10.4,19.6,N/A,,Partly Cloudy,190,2012-11-30 19:15:00
1:35 PM,71.6,50.0,46,30.06,7.0,South,8.1,-,N/A,,Clear,170,2012-11-30 19:35:00
1:55 PM,71.6,50.0,46,30.05,8.0,SSW,11.5,-,N/A,,Partly Cloudy,210,2012-11-30 19:55:00
2:15 PM,71.6,50.0,46,30.04,9.0,SSW,11.5,-,N/A,,Clear,200,2012-11-30 20:15:00
2:35 PM,71.6,50.0,46,30.04,9.0,SSW,11.5,16.1,N/A,,Clear,210,2012-11-30 20:35:00
2:55 PM,71.6,50.0,46,30.04,8.0,SSE,13.8,-,N/A,,Clear,160,2012-11-30 20:55:00
3:15 PM,71.6,50.0,46,30.04,8.0,SSE,10.4,-,N/A,,Clear,160,2012-11-30 21:15:00
3:35 PM,71.6,50.0,46,30.05,9.0,South,11.5,17.3,N/A,,Clear,180,2012-11-30 21:35:00
3:55 PM,69.8,50.0,49,30.05,9.0,South,8.1,-,N/A,,Clear,190,2012-11-30 21:55:00
4:15 PM,68.0,50.0,52,30.05,8.0,SSW,8.1,-,N/A,,Clear,200,2012-11-30 22:15:00
4:35 PM,66.2,51.8,60,30.05,8.0,SSW,4.6,-,N/A,,Clear,200,2012-11-30 22:35:00
4:55 PM,64.4,51.8,64,30.05,8.0,South,6.9,-,N/A,,Clear,190,2012-11-30 22:55:00
5:15 PM,64.4,51.8,64,30.05,8.0,South,8.1,-,N/A,,Clear,190,2012-11-30 23:15:00
5:35 PM,62.6,51.8,68,30.06,10.0,South,8.1,-,N/A,,Clear,180,2012-11-30 23:35:00
5:55 PM,62.6,53.6,72,30.06,10.0,South,9.2,-,N/A,,Partly Cloudy,180,2012-11-30 23:55:00
6:15 PM,62.6,53.6,72,30.06,10.0,South,8.1,-,N/A,,Mostly Cloudy,170,2012-12-01 00:15:00
6:35 PM,62.6,53.6,72,30.06,10.0,SSE,4.6,-,N/A,,Overcast,160,2012-12-01 00:35:00
6:55 PM,62.6,53.6,72,30.06,9.0,SSE,6.9,-,N/A,,Overcast,160,2012-12-01 00:55:00
7:15 PM,62.6,53.6,72,30.06,10.0,SE,5.8,-,N/A,,Overcast,130,2012-12-01 01:15:00
7:35 PM,60.8,53.6,77,30.06,9.0,SE,8.1,-,N/A,,Overcast,140,2012-12-01 01:35:00
7:55 PM,59.0,53.6,82,30.06,9.0,SE,9.2,-,N/A,,Overcast,140,2012-12-01 01:55:00
8:15 PM,59.0,53.6,82,30.06,9.0,SE,6.9,-,N/A,,Mostly Cloudy,130,2012-12-01 02:15:00
8:35 PM,59.0,53.6,82,30.06,8.0,SE,6.9,-,N/A,,Scattered Clouds,140,2012-12-01 02:35:00
8:55 PM,57.2,53.6,88,30.06,8.0,ESE,6.9,-,N/A,,Partly Cloudy,120,2012-12-01 02:55:00
9:15 PM,57.2,53.6,88,30.06,9.0,SE,6.9,-,N/A,,Scattered Clouds,130,2012-12-01 03:15:00
9:35 PM,57.2,51.8,82,30.06,8.0,ESE,6.9,-,N/A,,Mostly Cloudy,120,2012-12-01 03:35:00
9:55 PM,57.2,53.6,88,30.07,7.0,SE,8.1,-,N/A,,Mostly Cloudy,130,2012-12-01 03:55:00
10:15 PM,57.2,53.6,88,30.07,7.0,SE,9.2,-,N/A,,Partly Cloudy,140,2012-12-01 04:15:00
10:35 PM,57.2,53.6,88,30.07,8.0,SE,8.1,-,N/A,,Scattered Clouds,130,2012-12-01 04:35:00
10:55 PM,57.2,53.6,88,30.07,8.0,SE,9.2,-,N/A,,Overcast,130,2012-12-01 04:55:00
11:15 PM,57.2,53.6,88,30.07,8.0,SE,9.2,-,N/A,,Scattered Clouds,130,2012-12-01 05:15:00
11:35 PM,57.2,53.6,88,30.06,8.0,SE,9.2,-,N/A,,Mostly Cloudy,130,2012-12-01 05:35:00
11:55 PM,57.2,53.6,88,30.06,7.0,SE,10.4,-,N/A,,Scattered Clouds,140,2012-12-01 05:55:00